HELTNK1 LGKF-LGKF

Flight info

Callsign HELTNK1
Flight time 0h 11m
Altitude 6000
Route VFR
Aircraft S64/M-V/N

Departure

Time 2026-05-06 19:50
Airport Kefallinia Airport (LGKF)

Arrival

Time 2026-05-06 20:02
Airport Kefallinia Airport (LGKF)
Time Latitude Longitude Altitude Speed Heading
2026-05-06 19:39 38.11824 20.50475 59 ft 0 kts 56°
2026-05-06 19:44 38.11817 20.50472 60 ft 3 kts 245°
2026-05-06 19:45 38.11812 20.50452 65 ft 7 kts 266°
2026-05-06 19:45 38.11807 20.50436 69 ft 6 kts 274°
2026-05-06 19:46 38.11808 20.50413 85 ft 9 kts 236°
2026-05-06 19:47 38.11812 20.50397 87 ft 9 kts 238°
2026-05-06 19:47 38.11794 20.50357 59 ft 0 kts 212°
2026-05-06 19:47 38.11795 20.50357 61 ft 1 kts 211°
2026-05-06 19:47 38.11780 20.50350 67 ft 8 kts 224°
2026-05-06 19:49 38.11752 20.50296 69 ft 16 kts 272°
2026-05-06 19:49 38.11911 20.50148 118 ft 37 kts 302°
2026-05-06 19:50 38.12059 20.50033 142 ft 30 kts 308°
2026-05-06 19:50 38.12272 20.49861 281 ft 67 kts 311°
2026-05-06 19:50 38.12757 20.49422 716 ft 93 kts 318°
2026-05-06 19:50 38.13299 20.48951 1074 ft 90 kts 322°
2026-05-06 19:51 38.13882 20.48502 1181 ft 104 kts 323°
2026-05-06 19:51 38.14466 20.47964 1343 ft 105 kts 317°
2026-05-06 19:51 38.15009 20.47481 1620 ft 97 kts 320°
2026-05-06 19:51 38.15641 20.47165 1818 ft 100 kts 338°
2026-05-06 19:52 38.16320 20.46912 1950 ft 105 kts 335°
2026-05-06 19:52 38.17019 20.46634 2030 ft 109 kts 335°
2026-05-06 19:52 38.17724 20.46289 2124 ft 107 kts 335°
2026-05-06 19:52 38.18418 20.46041 2298 ft 101 kts 343°
2026-05-06 19:53 38.19083 20.45862 2365 ft 96 kts 344°
2026-05-06 19:53 38.19741 20.45710 2404 ft 97 kts 344°
2026-05-06 19:53 38.20399 20.45543 2493 ft 90 kts 343°
2026-05-06 19:53 38.20997 20.45397 2583 ft 91 kts 339°
2026-05-06 19:54 38.21607 20.45217 2670 ft 92 kts 341°
2026-05-06 19:54 38.21642 20.45208 2662 ft 93 kts 342°
2026-05-06 19:57 38.21762 20.45185 2716 ft 85 kts 350°
2026-05-06 19:58 38.22056 20.45145 2700 ft 91 kts 343°
2026-05-06 19:58 38.22699 20.44976 2606 ft 97 kts 335°
2026-05-06 19:59 38.23254 20.44755 2518 ft 100 kts 335°
2026-05-06 20:00 38.23405 20.44690 2511 ft 98 kts 334°
2026-05-06 20:00 38.23771 20.44549 2494 ft 91 kts 339°
2026-05-06 20:01 38.24344 20.44429 2151 ft 77 kts 339°
2026-05-06 20:01 38.24862 20.44289 1549 ft 74 kts 333°
2026-05-06 20:01 38.25319 20.44091 999 ft 67 kts 325°
2026-05-06 20:01 38.25725 20.43901 627 ft 53 kts 328°
2026-05-06 20:02 38.25948 20.43885 432 ft 15 kts 113°